TimePDT,TemperatureF,Dew PointF,Humidity,Sea Level PressureIn,VisibilityMPH,Wind Direction,Wind SpeedMPH,Gust SpeedMPH,PrecipitationIn,Events,Conditions,WindDirDegrees,DateUTC
12:53 AM,55.0,43.0,64,30.12,10.0,NW,3.5,-,N/A,,Scattered Clouds,320,2013-05-15 07:53:00
1:53 AM,54.0,43.0,66,30.11,10.0,Calm,Calm,-,N/A,,Overcast,0,2013-05-15 08:53:00
2:53 AM,53.1,44.1,71,30.11,10.0,NNW,3.5,-,N/A,,Overcast,340,2013-05-15 09:53:00
3:53 AM,51.1,44.1,77,30.10,10.0,East,3.5,-,N/A,,Overcast,100,2013-05-15 10:53:00
4:53 AM,50.0,43.0,77,30.10,10.0,East,5.8,-,N/A,,Overcast,100,2013-05-15 11:53:00
5:53 AM,51.1,42.1,71,30.09,10.0,Calm,Calm,-,N/A,,Mostly Cloudy,0,2013-05-15 12:53:00
6:53 AM,52.0,44.1,74,30.09,10.0,Calm,Calm,-,N/A,,Overcast,0,2013-05-15 13:53:00
7:53 AM,53.1,44.1,71,30.10,10.0,ENE,3.5,-,N/A,,Overcast,70,2013-05-15 14:53:00
8:53 AM,53.1,46.0,77,30.10,10.0,Calm,Calm,-,0.01,Rain,Light Rain,0,2013-05-15 15:53:00
9:53 AM,53.1,46.9,80,30.11,10.0,Calm,Calm,-,0.00,,Overcast,0,2013-05-15 16:53:00
10:53 AM,54.0,48.9,83,30.12,7.0,Calm,Calm,-,0.01,Rain,Light Rain,0,2013-05-15 17:53:00
11:26 AM,53.6,48.2,82,30.12,10.0,SSE,4.6,-,0.01,Rain,Light Rain,150,2013-05-15 18:26:00
11:53 AM,54.0,48.9,83,30.12,10.0,SSW,8.1,-,0.01,Rain,Light Rain,200,2013-05-15 18:53:00
12:53 PM,55.0,48.0,77,30.12,10.0,SW,3.5,-,0.00,Rain,Light Rain,220,2013-05-15 19:53:00
1:21 PM,55.4,46.4,72,30.11,10.0,SW,5.8,-,0.00,Rain,Light Rain,230,2013-05-15 20:21:00
1:53 PM,55.9,46.9,72,30.11,10.0,South,4.6,-,0.00,,Overcast,180,2013-05-15 20:53:00
2:53 PM,57.0,48.0,72,30.10,10.0,SSE,4.6,-,0.00,,Overcast,150,2013-05-15 21:53:00
3:53 PM,57.9,48.9,72,30.09,10.0,South,6.9,-,0.00,,Overcast,180,2013-05-15 22:53:00
4:53 PM,59.0,50.0,72,30.07,10.0,Calm,Calm,-,0.00,Rain,Light Rain,0,2013-05-15 23:53:00
5:53 PM,59.0,48.0,67,30.06,10.0,SSW,4.6,-,0.00,,Overcast,210,2013-05-16 00:53:00
6:53 PM,57.0,48.9,74,30.06,9.0,SSW,8.1,-,N/A,,Overcast,200,2013-05-16 01:53:00
7:53 PM,55.9,50.0,80,30.06,10.0,SE,4.6,-,N/A,,Overcast,140,2013-05-16 02:53:00
8:53 PM,55.9,50.0,80,30.05,10.0,SE,4.6,-,N/A,,Overcast,140,2013-05-16 03:53:00
9:48 PM,55.4,51.8,88,30.06,10.0,East,6.9,-,N/A,,Overcast,100,2013-05-16 04:48:00
9:53 PM,55.0,51.1,86,30.06,10.0,East,6.9,-,N/A,,Overcast,100,2013-05-16 04:53:00
10:28 PM,55.4,51.8,88,30.05,10.0,East,6.9,-,N/A,,Overcast,100,2013-05-16 05:28:00
10:41 PM,55.4,51.8,88,30.05,10.0,ESE,8.1,-,N/A,,Overcast,110,2013-05-16 05:41:00
10:53 PM,55.0,51.1,86,30.05,10.0,ESE,9.2,-,N/A,,Overcast,110,2013-05-16 05:53:00
11:21 PM,53.6,51.8,94,30.04,10.0,East,9.2,-,N/A,,Mostly Cloudy,100,2013-05-16 06:21:00
11:53 PM,54.0,51.1,90,30.04,10.0,East,6.9,-,N/A,,Mostly Cloudy,100,2013-05-16 06:53:00